Tracking 29777 objects as of 5-Oct-2024
HD Live streaming from Space Station
objects crossing your sky now

COSMOS 252 DEB

Track COSMOS 252 DEB now!
10-day predictions


NORAD ID: 18490
Int'l Code: 1968-097EN
Perigee: 531.6 km
Apogee: 1,135.1 km
Inclination: 62.7 °
Period: 101.4 minutes
Semi major axis: 7204 km
RCS: 0.002 m2 (small)
Launch date: November 1, 1968
Source: Commonwealth of Independent States (former USSR) (CIS)
Launch site: TYURATAM MISSILE AND SPACE COMPLEX (TTMTR)

Note: This is SATELLITE DEBRIS
Your satellite tracking list
Your tracking list is empty




NASA's NSSDC Master Catalog

Two Line Element Set (TLE):
1 18490U 68097EN  24278.39611977  .00013262  00000-0  25860-2 0  9995
2 18490  62.7469 230.5170 0418848 243.7525 111.9923 14.19746784623971
Source of the keplerian elements: AFSPC